Time,TemperatureF,DewpointF,PressureIn,WindDirection,WindDirectionDegrees,WindSpeedMPH,WindSpeedGustMPH,Humidity,HourlyPrecipIn,Conditions,Clouds,dailyrainin,SoftwareType,DateUTC
2013-06-20 00:00:00,65.7,63.2,30.16,NE,37,0.0,3.0,92,0.00,,,0.00,Weather View 32 v70,2013-06-20 04:00:00,
2013-06-20 00:05:00,65.9,63.5,30.17,NE,37,0.0,2.0,92,0.00,,,0.00,Weather View 32 v70,2013-06-20 04:05:00,
2013-06-20 00:10:00,65.8,63.5,30.17,NE,37,0.0,2.0,92,0.00,,,0.00,Weather View 32 v70,2013-06-20 04:10:00,
2013-06-20 00:15:00,65.7,63.4,30.17,NE,37,0.0,2.0,92,0.00,,,0.00,Weather View 32 v70,2013-06-20 04:15:00,
2013-06-20 00:20:00,65.6,63.4,30.17,NE,37,0.0,0.0,93,0.00,,,0.00,Weather View 32 v70,2013-06-20 04:20:00,
2013-06-20 00:30:00,65.7,63.5,30.17,NE,37,0.0,0.0,93,0.00,,,0.00,Weather View 32 v70,2013-06-20 04:30:00,
2013-06-20 00:35:00,65.3,63.1,30.17,SE,143,2.0,2.0,93,0.00,,,0.00,Weather View 32 v70,2013-06-20 04:35:00,
2013-06-20 00:40:00,65.1,63.0,30.17,ESE,122,0.0,3.0,93,0.00,,,0.00,Weather View 32 v70,2013-06-20 04:40:00,
2013-06-20 00:45:00,65.1,63.0,30.18,South,173,1.0,3.0,93,0.00,,,0.00,Weather View 32 v70,2013-06-20 04:45:00,
2013-06-20 00:50:00,65.0,63.0,30.17,ESE,105,0.0,3.0,93,0.00,,,0.00,Weather View 32 v70,2013-06-20 04:50:00,
2013-06-20 00:55:00,65.1,63.0,30.17,ESE,105,0.0,3.0,93,0.00,,,0.00,Weather View 32 v70,2013-06-20 04:55:00,
2013-06-20 01:00:00,64.9,62.8,30.18,ESE,105,0.0,3.0,93,0.00,,,0.00,Weather View 32 v70,2013-06-20 05:00:00,
2013-06-20 01:10:00,64.8,62.9,30.18,SSW,200,3.0,3.0,94,0.00,,,0.00,Weather View 32 v70,2013-06-20 05:10:00,
2013-06-20 01:15:00,64.7,63.0,30.18,SSE,148,0.0,4.0,94,0.00,,,0.00,Weather View 32 v70,2013-06-20 05:15:00,
2013-06-20 01:20:00,64.7,62.9,30.18,SSE,148,0.0,4.0,94,0.00,,,0.00,Weather View 32 v70,2013-06-20 05:20:00,
2013-06-20 01:25:00,64.6,62.9,30.18,SSE,167,0.0,4.0,94,0.00,,,0.00,Weather View 32 v70,2013-06-20 05:25:00,
2013-06-20 01:30:00,64.6,62.9,30.18,SE,142,0.0,4.0,94,0.00,,,0.00,Weather View 32 v70,2013-06-20 05:30:00,
2013-06-20 01:35:00,64.6,62.9,30.19,SE,142,0.0,4.0,94,0.00,,,0.00,Weather View 32 v70,2013-06-20 05:35:00,
2013-06-20 01:40:00,64.4,62.8,30.18,SE,142,0.0,4.0,94,0.00,,,0.00,Weather View 32 v70,2013-06-20 05:40:00,
2013-06-20 01:45:00,64.4,62.8,30.19,SE,142,0.0,4.0,95,0.00,,,0.00,Weather View 32 v70,2013-06-20 05:45:00,
2013-06-20 01:50:00,64.6,63.0,30.19,SE,142,0.0,4.0,95,0.00,,,0.00,Weather View 32 v70,2013-06-20 05:50:00,
2013-06-20 01:55:00,64.6,63.1,30.19,SE,142,0.0,4.0,95,0.00,,,0.00,Weather View 32 v70,2013-06-20 05:55:00,
2013-06-20 02:00:00,64.8,63.2,30.19,SE,142,0.0,4.0,95,0.00,,,0.00,Weather View 32 v70,2013-06-20 06:00:00,
2013-06-20 02:05:00,64.8,63.2,30.19,SE,142,0.0,4.0,95,0.00,,,0.00,Weather View 32 v70,2013-06-20 06:05:00,
2013-06-20 02:10:00,64.7,63.1,30.19,SE,142,0.0,4.0,95,0.00,,,0.00,Weather View 32 v70,2013-06-20 06:10:00,
2013-06-20 02:15:00,64.7,63.1,30.19,SE,142,0.0,2.0,95,0.00,,,0.00,Weather View 32 v70,2013-06-20 06:15:00,
2013-06-20 02:20:00,64.6,63.0,30.19,SE,142,0.0,2.0,95,0.00,,,0.00,Weather View 32 v70,2013-06-20 06:20:00,
2013-06-20 02:25:00,64.7,63.2,30.19,SE,142,0.0,2.0,95,0.00,,,0.00,Weather View 32 v70,2013-06-20 06:25:00,
2013-06-20 02:30:00,64.7,63.1,30.19,SE,142,0.0,0.0,95,0.00,,,0.00,Weather View 32 v70,2013-06-20 06:30:00,
2013-06-20 02:35:00,64.6,63.1,30.19,SE,142,0.0,0.0,95,0.00,,,0.00,Weather View 32 v70,2013-06-20 06:35:00,
2013-06-20 02:40:00,64.7,63.1,30.18,SE,142,0.0,0.0,95,0.00,,,0.00,Weather View 32 v70,2013-06-20 06:40:00,
2013-06-20 02:45:00,64.5,62.9,30.18,SE,142,0.0,0.0,95,0.00,,,0.00,Weather View 32 v70,2013-06-20 06:45:00,
2013-06-20 02:50:00,64.2,62.6,30.18,SE,142,0.0,0.0,95,0.00,,,0.00,Weather View 32 v70,2013-06-20 06:50:00,
2013-06-20 02:55:00,64.0,62.5,30.18,SE,142,0.0,0.0,95,0.00,,,0.00,Weather View 32 v70,2013-06-20 06:55:00,
2013-06-20 03:05:00,63.8,62.4,30.18,SE,142,0.0,0.0,95,0.00,,,0.00,Weather View 32 v70,2013-06-20 07:05:00,
2013-06-20 03:10:00,63.7,62.3,30.18,SE,142,0.0,0.0,95,0.00,,,0.00,Weather View 32 v70,2013-06-20 07:10:00,
2013-06-20 03:15:00,63.7,62.3,30.18,ESE,104,0.0,2.0,95,0.00,,,0.00,Weather View 32 v70,2013-06-20 07:15:00,
2013-06-20 03:25:00,63.5,62.2,30.18,ESE,104,0.0,2.0,95,0.00,,,0.00,Weather View 32 v70,2013-06-20 07:25:00,
2013-06-20 03:30:00,63.5,62.1,30.19,ESE,104,0.0,2.0,95,0.00,,,0.00,Weather View 32 v70,2013-06-20 07:30:00,
2013-06-20 03:40:00,63.6,62.2,30.18,ESE,104,0.0,2.0,95,0.00,,,0.00,Weather View 32 v70,2013-06-20 07:40:00,
2013-06-20 03:45:00,63.7,62.3,30.18,ESE,104,0.0,2.0,95,0.00,,,0.00,Weather View 32 v70,2013-06-20 07:45:00,
2013-06-20 03:50:00,63.7,62.4,30.18,ESE,104,0.0,2.0,95,0.00,,,0.00,Weather View 32 v70,2013-06-20 07:50:00,
2013-06-20 03:55:00,63.8,62.5,30.19,ESE,104,0.0,2.0,95,0.00,,,0.00,Weather View 32 v70,2013-06-20 07:55:00,
2013-06-20 04:05:00,63.7,62.4,30.19,ESE,104,0.0,2.0,95,0.00,,,0.00,Weather View 32 v70,2013-06-20 08:05:00,
2013-06-20 04:15:00,63.7,62.4,30.19,ESE,104,0.0,0.0,96,0.00,,,0.00,Weather View 32 v70,2013-06-20 08:15:00,
2013-06-20 04:20:00,63.8,62.5,30.19,NE,38,2.0,3.0,96,0.00,,,0.00,Weather View 32 v70,2013-06-20 08:20:00,
2013-06-20 04:30:00,63.8,62.5,30.19,NE,46,0.0,3.0,96,0.00,,,0.00,Weather View 32 v70,2013-06-20 08:30:00,
2013-06-20 04:35:00,63.9,62.6,30.19,NE,46,0.0,3.0,96,0.00,,,0.00,Weather View 32 v70,2013-06-20 08:35:00,
2013-06-20 04:40:00,63.8,62.5,30.19,NE,46,0.0,3.0,96,0.00,,,0.00,Weather View 32 v70,2013-06-20 08:40:00,
2013-06-20 04:50:00,64.0,62.7,30.20,NE,46,0.0,3.0,96,0.00,,,0.00,Weather View 32 v70,2013-06-20 08:50:00,
2013-06-20 04:55:00,64.0,62.7,30.20,NE,46,0.0,3.0,96,0.00,,,0.00,Weather View 32 v70,2013-06-20 08:55:00,
2013-06-20 05:00:00,64.0,62.7,30.21,NE,46,0.0,3.0,96,0.00,,,0.00,Weather View 32 v70,2013-06-20 09:00:00,
2013-06-20 05:10:00,64.1,62.8,30.21,ESE,117,0.0,3.0,96,0.00,,,0.00,Weather View 32 v70,2013-06-20 09:10:00,
2013-06-20 05:15:00,64.1,62.8,30.21,ESE,117,0.0,3.0,96,0.00,,,0.00,Weather View 32 v70,2013-06-20 09:15:00,
2013-06-20 05:20:00,64.1,62.8,30.21,ESE,117,0.0,3.0,96,0.00,,,0.00,Weather View 32 v70,2013-06-20 09:20:00,
2013-06-20 05:25:00,63.9,62.6,30.21,ESE,117,0.0,2.0,96,0.00,,,0.00,Weather View 32 v70,2013-06-20 09:25:00,
2013-06-20 05:30:00,63.8,62.5,30.21,ESE,117,0.0,2.0,96,0.00,,,0.00,Weather View 32 v70,2013-06-20 09:30:00,
2013-06-20 05:35:00,63.7,62.4,30.21,ESE,117,0.0,2.0,96,0.00,,,0.00,Weather View 32 v70,2013-06-20 09:35:00,
2013-06-20 05:40:00,63.8,62.5,30.21,ESE,117,0.0,2.0,96,0.00,,,0.00,Weather View 32 v70,2013-06-20 09:40:00,
2013-06-20 05:50:00,63.5,62.2,30.21,ESE,117,0.0,2.0,96,0.00,,,0.00,Weather View 32 v70,2013-06-20 09:50:00,
2013-06-20 05:55:00,63.5,62.2,30.21,ESE,117,0.0,2.0,96,0.00,,,0.00,Weather View 32 v70,2013-06-20 09:55:00,
2013-06-20 06:00:00,63.4,62.1,30.21,ESE,117,0.0,2.0,96,0.00,,,0.00,Weather View 32 v70,2013-06-20 10:00:00,
2013-06-20 06:05:00,63.4,62.2,30.21,ESE,117,0.0,2.0,96,0.00,,,0.00,Weather View 32 v70,2013-06-20 10:05:00,
2013-06-20 06:10:00,63.5,62.3,30.21,ESE,117,0.0,0.0,96,0.00,,,0.00,Weather View 32 v70,2013-06-20 10:10:00,
2013-06-20 06:15:00,63.6,62.4,30.21,ESE,117,0.0,0.0,96,0.00,,,0.00,Weather View 32 v70,2013-06-20 10:15:00,
2013-06-20 06:20:00,63.6,62.4,30.21,ESE,117,0.0,0.0,96,0.00,,,0.00,Weather View 32 v70,2013-06-20 10:20:00,
2013-06-20 06:25:00,63.6,62.4,30.21,ESE,117,0.0,0.0,96,0.00,,,0.00,Weather View 32 v70,2013-06-20 10:25:00,
2013-06-20 06:30:00,63.6,62.4,30.21,ESE,117,0.0,0.0,96,0.00,,,0.00,Weather View 32 v70,2013-06-20 10:30:00,
2013-06-20 06:35:00,63.6,62.4,30.21,ESE,117,0.0,0.0,96,0.00,,,0.00,Weather View 32 v70,2013-06-20 10:35:00,
2013-06-20 06:40:00,63.7,62.5,30.22,ESE,117,0.0,0.0,96,0.00,,,0.00,Weather View 32 v70,2013-06-20 10:40:00,
2013-06-20 06:50:00,63.6,62.4,30.22,ESE,117,0.0,0.0,96,0.00,,,0.00,Weather View 32 v70,2013-06-20 10:50:00,
2013-06-20 06:55:00,63.7,62.5,30.23,ESE,117,0.0,0.0,96,0.00,,,0.00,Weather View 32 v70,2013-06-20 10:55:00,
2013-06-20 07:00:00,64.0,62.8,30.23,ESE,117,0.0,0.0,96,0.00,,,0.00,Weather View 32 v70,2013-06-20 11:00:00,
2013-06-20 07:10:00,64.5,63.4,30.23,ESE,117,0.0,0.0,96,0.00,,,0.00,Weather View 32 v70,2013-06-20 11:10:00,
2013-06-20 07:15:00,64.8,63.7,30.23,ESE,117,0.0,0.0,96,0.00,,,0.00,Weather View 32 v70,2013-06-20 11:15:00,
2013-06-20 07:20:00,65.0,63.9,30.23,SSE,152,0.0,1.0,96,0.00,,,0.00,Weather View 32 v70,2013-06-20 11:20:00,
2013-06-20 07:25:00,65.1,64.0,30.23,SSE,152,0.0,1.0,96,0.00,,,0.00,Weather View 32 v70,2013-06-20 11:25:00,
2013-06-20 07:30:00,65.2,64.1,30.23,SSE,152,0.0,1.0,96,0.00,,,0.00,Weather View 32 v70,2013-06-20 11:30:00,
2013-06-20 07:35:00,65.3,64.1,30.24,SSE,152,0.0,1.0,96,0.00,,,0.00,Weather View 32 v70,2013-06-20 11:35:00,
2013-06-20 07:45:00,65.7,64.5,30.24,SSE,152,0.0,1.0,96,0.00,,,0.00,Weather View 32 v70,2013-06-20 11:45:00,
2013-06-20 07:50:00,65.9,64.7,30.24,SSE,152,0.0,1.0,96,0.00,,,0.00,Weather View 32 v70,2013-06-20 11:50:00,
2013-06-20 07:55:00,66.1,64.8,30.24,SSE,152,0.0,1.0,96,0.00,,,0.00,Weather View 32 v70,2013-06-20 11:55:00,
2013-06-20 08:00:00,66.5,65.2,30.25,SW,214,2.0,2.0,96,0.00,,,0.00,Weather View 32 v70,2013-06-20 12:00:00,
2013-06-20 08:10:00,66.9,65.4,30.25,South,173,0.0,3.0,95,0.00,,,0.00,Weather View 32 v70,2013-06-20 12:10:00,
2013-06-20 08:15:00,67.0,65.4,30.25,South,173,0.0,3.0,95,0.00,,,0.00,Weather View 32 v70,2013-06-20 12:15:00,
2013-06-20 08:20:00,67.2,65.5,30.25,South,173,0.0,3.0,94,0.00,,,0.00,Weather View 32 v70,2013-06-20 12:20:00,
2013-06-20 08:30:00,67.7,65.7,30.25,West,271,0.0,3.0,94,0.00,,,0.00,Weather View 32 v70,2013-06-20 12:30:00,
2013-06-20 08:35:00,67.9,65.7,30.25,West,278,0.0,3.0,93,0.00,,,0.00,Weather View 32 v70,2013-06-20 12:35:00,
2013-06-20 08:40:00,68.3,66.1,30.26,North,356,0.0,3.0,93,0.00,,,0.00,Weather View 32 v70,2013-06-20 12:40:00,
2013-06-20 08:45:00,68.4,66.1,30.26,North,353,0.0,3.0,92,0.00,,,0.00,Weather View 32 v70,2013-06-20 12:45:00,
2013-06-20 08:55:00,69.2,66.6,30.26,North,353,0.0,3.0,92,0.00,,,0.00,Weather View 32 v70,2013-06-20 12:55:00,
2013-06-20 09:00:00,69.3,66.5,30.26,North,353,0.0,3.0,91,0.00,,,0.00,Weather View 32 v70,2013-06-20 13:00:00,
2013-06-20 09:05:00,69.6,66.9,30.26,NW,304,1.0,2.0,91,0.00,,,0.00,Weather View 32 v70,2013-06-20 13:05:00,
2013-06-20 09:15:00,70.3,66.9,30.26,South,169,0.0,5.0,89,0.00,,,0.00,Weather View 32 v70,2013-06-20 13:15:00,
2013-06-20 09:23:00,70.6,66.9,30.26,SW,214,2.0,5.0,88,0.00,,,0.00,Weather View 32 v70,2013-06-20 13:23:00,
2013-06-20 09:30:00,70.9,66.7,30.26,ESE,107,0.0,5.0,87,0.00,,,0.00,Weather View 32 v70,2013-06-20 13:30:00,
2013-06-20 09:35:00,71.4,67.5,30.26,SE,132,2.0,5.0,88,0.00,,,0.00,Weather View 32 v70,2013-06-20 13:35:00,
2013-06-20 09:40:00,72.0,67.9,30.25,SE,129,2.0,5.0,87,0.00,,,0.00,Weather View 32 v70,2013-06-20 13:40:00,
2013-06-20 09:45:00,72.4,68.0,30.25,NE,35,1.0,5.0,86,0.00,,,0.00,Weather View 32 v70,2013-06-20 13:45:00,
2013-06-20 09:50:00,72.5,67.8,30.25,ESE,118,1.0,5.0,85,0.00,,,0.00,Weather View 32 v70,2013-06-20 13:50:00,
2013-06-20 09:55:00,73.2,68.7,30.25,ESE,118,6.0,6.0,86,0.00,,,0.00,Weather View 32 v70,2013-06-20 13:55:00,
2013-06-20 10:05:00,73.8,68.3,30.25,East,101,3.0,8.0,83,0.00,,,0.00,Weather View 32 v70,2013-06-20 14:05:00,
2013-06-20 10:10:00,74.4,68.1,30.25,SSE,152,2.0,8.0,81,0.00,,,0.00,Weather View 32 v70,2013-06-20 14:10:00,
2013-06-20 10:20:00,75.0,68.3,30.25,SW,222,2.0,9.0,80,0.00,,,0.00,Weather View 32 v70,2013-06-20 14:20:00,
2013-06-20 10:25:00,75.5,68.8,30.25,SSE,166,5.0,11.0,80,0.00,,,0.00,Weather View 32 v70,2013-06-20 14:25:00,
2013-06-20 10:30:00,75.5,67.5,30.25,South,188,3.0,11.0,76,0.00,,,0.00,Weather View 32 v70,2013-06-20 14:30:00,
2013-06-20 10:40:00,75.3,67.7,30.25,SSE,148,6.0,13.0,78,0.00,,,0.00,Weather View 32 v70,2013-06-20 14:40:00,
2013-06-20 10:45:00,75.6,67.5,30.25,SE,141,9.0,13.0,76,0.00,,,0.00,Weather View 32 v70,2013-06-20 14:45:00,
2013-06-20 10:55:00,76.1,68.2,30.25,ENE,75,5.0,13.0,77,0.00,,,0.00,Weather View 32 v70,2013-06-20 14:55:00,
2013-06-20 11:00:00,76.1,67.6,30.25,East,82,6.0,13.0,75,0.00,,,0.00,Weather View 32 v70,2013-06-20 15:00:00,
2013-06-20 11:05:00,76.1,67.0,30.25,SE,143,6.0,13.0,74,0.00,,,0.00,Weather View 32 v70,2013-06-20 15:05:00,
2013-06-20 11:10:00,75.9,67.7,30.25,ENE,75,5.0,13.0,76,0.00,,,0.00,Weather View 32 v70,2013-06-20 15:10:00,
2013-06-20 11:15:00,76.0,68.3,30.26,SE,131,5.0,13.0,77,0.00,,,0.00,Weather View 32 v70,2013-06-20 15:15:00,
2013-06-20 11:20:00,76.8,68.0,30.25,South,179,9.0,13.0,74,0.00,,,0.00,Weather View 32 v70,2013-06-20 15:20:00,
2013-06-20 11:25:00,77.2,68.0,30.26,SE,131,6.0,13.0,73,0.00,,,0.00,Weather View 32 v70,2013-06-20 15:25:00,
2013-06-20 11:30:00,77.1,66.6,30.25,ENE,65,3.0,13.0,70,0.00,,,0.00,Weather View 32 v70,2013-06-20 15:30:00,
2013-06-20 11:35:00,77.7,67.5,30.25,ENE,69,5.0,13.0,71,0.00,,,0.00,Weather View 32 v70,2013-06-20 15:35:00,
2013-06-20 11:40:00,77.7,67.8,30.25,SW,226,4.0,13.0,72,0.00,,,0.00,Weather View 32 v70,2013-06-20 15:40:00,
2013-06-20 11:50:00,78.4,68.0,30.25,SE,142,1.0,13.0,71,0.00,,,0.00,Weather View 32 v70,2013-06-20 15:50:00,
2013-06-20 12:00:00,78.9,68.4,30.25,SW,214,2.0,13.0,70,0.00,,,0.00,Weather View 32 v70,2013-06-20 16:00:00,
2013-06-20 12:05:00,79.2,67.9,30.25,South,172,10.0,13.0,69,0.00,,,0.00,Weather View 32 v70,2013-06-20 16:05:00,
2013-06-20 12:10:00,78.8,67.3,30.25,SSE,155,9.0,13.0,68,0.00,,,0.00,Weather View 32 v70,2013-06-20 16:10:00,
2013-06-20 12:15:00,79.1,68.7,30.25,SE,146,5.0,13.0,71,0.00,,,0.00,Weather View 32 v70,2013-06-20 16:15:00,
2013-06-20 12:20:00,79.4,68.3,30.25,ESE,117,3.0,13.0,69,0.00,,,0.00,Weather View 32 v70,2013-06-20 16:20:00,
2013-06-20 12:25:00,79.5,67.8,30.25,South,173,2.0,12.0,68,0.00,,,0.00,Weather View 32 v70,2013-06-20 16:25:00,
2013-06-20 12:30:00,79.3,67.5,30.25,ESE,117,5.0,12.0,67,0.00,,,0.00,Weather View 32 v70,2013-06-20 16:30:00,
2013-06-20 12:40:00,78.4,67.8,30.25,SE,128,6.0,13.0,70,0.00,,,0.00,Weather View 32 v70,2013-06-20 16:40:00,
2013-06-20 12:45:00,78.8,68.8,30.25,East,100,4.0,13.0,72,0.00,,,0.00,Weather View 32 v70,2013-06-20 16:45:00,
2013-06-20 12:55:00,79.2,68.6,30.24,SE,124,8.0,13.0,70,0.00,,,0.00,Weather View 32 v70,2013-06-20 16:55:00,
2013-06-20 13:00:00,79.7,69.0,30.24,East,79,2.0,13.0,70,0.00,,,0.00,Weather View 32 v70,2013-06-20 17:00:00,
2013-06-20 13:10:00,80.4,68.0,30.24,SSE,150,6.0,16.0,66,0.00,,,0.00,Weather View 32 v70,2013-06-20 17:10:00,
2013-06-20 13:15:00,80.4,68.7,30.24,SE,142,7.0,16.0,68,0.00,,,0.00,Weather View 32 v70,2013-06-20 17:15:00,
2013-06-20 13:20:00,80.4,67.7,30.24,SE,143,9.0,16.0,66,0.00,,,0.00,Weather View 32 v70,2013-06-20 17:20:00,
2013-06-20 13:25:00,80.3,68.2,30.24,SW,236,7.0,16.0,67,0.00,,,0.00,Weather View 32 v70,2013-06-20 17:25:00,
2013-06-20 13:35:00,80.5,67.8,30.24,SSW,197,5.0,16.0,66,0.00,,,0.00,Weather View 32 v70,2013-06-20 17:35:00,
2013-06-20 13:40:00,79.8,66.4,30.24,SE,145,9.0,16.0,64,0.00,,,0.00,Weather View 32 v70,2013-06-20 17:40:00,
2013-06-20 13:50:00,79.5,67.3,30.24,ESE,103,7.0,16.0,66,0.00,,,0.00,Weather View 32 v70,2013-06-20 17:50:00,
2013-06-20 13:55:00,79.9,67.3,30.24,ESE,111,3.0,16.0,66,0.00,,,0.00,Weather View 32 v70,2013-06-20 17:55:00,
2013-06-20 14:00:00,80.3,67.4,30.24,SSE,149,7.0,16.0,65,0.00,,,0.00,Weather View 32 v70,2013-06-20 18:00:00,
2013-06-20 14:10:00,80.9,68.8,30.23,East,79,6.0,15.0,67,0.00,,,0.00,Weather View 32 v70,2013-06-20 18:10:00,
2013-06-20 14:15:00,81.3,67.8,30.24,NNE,21,4.0,15.0,64,0.00,,,0.00,Weather View 32 v70,2013-06-20 18:15:00,
2013-06-20 14:20:00,81.2,68.1,30.23,ESE,117,6.0,15.0,65,0.00,,,0.00,Weather View 32 v70,2013-06-20 18:20:00,
2013-06-20 14:26:00,81.3,68.8,30.23,ESE,104,2.0,15.0,66,0.00,,,0.00,Weather View 32 v70,2013-06-20 18:26:00,
2013-06-20 14:35:00,81.4,68.0,30.23,SSE,158,6.0,16.0,64,0.00,,,0.00,Weather View 32 v70,2013-06-20 18:35:00,
2013-06-20 14:40:00,81.5,67.8,30.23,East,93,7.0,16.0,63,0.00,,,0.00,Weather View 32 v70,2013-06-20 18:40:00,
2013-06-20 14:50:00,81.4,67.6,30.23,ESE,107,6.0,16.0,63,0.00,,,0.00,Weather View 32 v70,2013-06-20 18:50:00,
2013-06-20 14:55:00,80.8,66.1,30.23,SSE,167,5.0,16.0,61,0.00,,,0.00,Weather View 32 v70,2013-06-20 18:55:00,
2013-06-20 15:05:00,81.1,67.0,30.23,SSE,162,6.0,16.0,62,0.00,,,0.00,Weather View 32 v70,2013-06-20 19:05:00,
2013-06-20 15:10:00,81.1,67.4,30.22,ESE,115,8.0,16.0,63,0.00,,,0.00,Weather View 32 v70,2013-06-20 19:10:00,
2013-06-20 15:20:00,80.2,66.5,30.22,SE,141,10.0,18.0,63,0.00,,,0.00,Weather View 32 v70,2013-06-20 19:20:00,
2013-06-20 15:25:00,80.1,66.3,30.22,SSW,197,3.0,18.0,63,0.00,,,0.00,Weather View 32 v70,2013-06-20 19:25:00,
2013-06-20 15:35:00,80.4,66.7,30.22,SW,233,7.0,18.0,63,0.00,,,0.00,Weather View 32 v70,2013-06-20 19:35:00,
2013-06-20 15:40:00,80.6,67.0,30.22,NE,41,7.0,22.0,64,0.00,,,0.00,Weather View 32 v70,2013-06-20 19:40:00,
2013-06-20 15:45:00,80.3,66.3,30.22,SE,131,8.0,22.0,63,0.00,,,0.00,Weather View 32 v70,2013-06-20 19:45:00,
2013-06-20 15:50:00,79.9,65.8,30.22,SE,142,7.0,22.0,62,0.00,,,0.00,Weather View 32 v70,2013-06-20 19:50:00,
2013-06-20 15:55:00,79.8,66.7,30.22,SSW,205,6.0,22.0,64,0.00,,,0.00,Weather View 32 v70,2013-06-20 19:55:00,
2013-06-20 16:00:00,79.9,65.9,30.22,North,359,6.0,22.0,63,0.00,,,0.00,Weather View 32 v70,2013-06-20 20:00:00,
2013-06-20 16:10:00,80.0,67.0,30.22,South,176,9.0,22.0,65,0.00,,,0.00,Weather View 32 v70,2013-06-20 20:10:00,
2013-06-20 16:15:00,80.5,66.3,30.22,East,82,5.0,22.0,62,0.00,,,0.00,Weather View 32 v70,2013-06-20 20:15:00,
2013-06-20 16:20:00,80.5,66.6,30.22,South,177,7.0,22.0,63,0.00,,,0.00,Weather View 32 v70,2013-06-20 20:20:00,
2013-06-20 16:25:00,81.1,67.1,30.22,South,177,7.0,22.0,63,0.00,,,0.00,Weather View 32 v70,2013-06-20 20:25:00,
2013-06-20 16:30:00,81.3,66.4,30.22,ESE,108,10.0,22.0,61,0.00,,,0.00,Weather View 32 v70,2013-06-20 20:30:00,
2013-06-20 16:35:00,81.4,66.1,30.22,South,187,6.0,22.0,60,0.00,,,0.00,Weather View 32 v70,2013-06-20 20:35:00,
2013-06-20 16:40:00,81.7,65.7,30.22,SW,228,4.0,19.0,59,0.00,,,0.00,Weather View 32 v70,2013-06-20 20:40:00,
2013-06-20 16:45:00,81.7,66.2,30.22,NNE,23,2.0,19.0,60,0.00,,,0.00,Weather View 32 v70,2013-06-20 20:45:00,
2013-06-20 16:50:00,82.1,66.4,30.22,South,176,4.0,19.0,59,0.00,,,0.00,Weather View 32 v70,2013-06-20 20:50:00,
2013-06-20 16:55:00,82.0,66.8,30.22,East,94,5.0,19.0,60,0.00,,,0.00,Weather View 32 v70,2013-06-20 20:55:00,
2013-06-20 17:00:00,81.3,65.7,30.22,ESE,103,7.0,19.0,59,0.00,,,0.00,Weather View 32 v70,2013-06-20 21:00:00,
2013-06-20 17:10:00,81.4,66.4,30.22,SE,136,8.0,16.0,61,0.00,,,0.00,Weather View 32 v70,2013-06-20 21:10:00,
2013-06-20 17:15:00,81.9,66.7,30.22,SE,125,6.0,16.0,60,0.00,,,0.00,Weather View 32 v70,2013-06-20 21:15:00,
2013-06-20 17:20:00,81.8,66.4,30.22,SE,146,6.0,16.0,60,0.00,,,0.00,Weather View 32 v70,2013-06-20 21:20:00,
2013-06-20 17:27:00,82.1,65.8,30.22,SE,142,3.0,16.0,58,0.00,,,0.00,Weather View 32 v70,2013-06-20 21:27:00,
2013-06-20 17:35:00,81.2,65.2,30.22,SE,145,6.0,14.0,59,0.00,,,0.00,Weather View 32 v70,2013-06-20 21:35:00,
2013-06-20 17:40:00,81.0,65.9,30.22,North,359,4.0,14.0,60,0.00,,,0.00,Weather View 32 v70,2013-06-20 21:40:00,
2013-06-20 17:50:00,80.4,65.9,30.22,SE,124,9.0,14.0,62,0.00,,,0.00,Weather View 32 v70,2013-06-20 21:50:00,
2013-06-20 17:55:00,80.1,66.3,30.22,SE,128,7.0,14.0,63,0.00,,,0.00,Weather View 32 v70,2013-06-20 21:55:00,
2013-06-20 18:05:00,79.9,65.4,30.21,SW,222,2.0,13.0,61,0.00,,,0.00,Weather View 32 v70,2013-06-20 22:05:00,
2013-06-20 18:10:00,80.0,65.4,30.21,SW,214,3.0,13.0,61,0.00,,,0.00,Weather View 32 v70,2013-06-20 22:10:00,
2013-06-20 18:15:00,79.8,65.6,30.21,SE,141,8.0,13.0,62,0.00,,,0.00,Weather View 32 v70,2013-06-20 22:15:00,
2013-06-20 18:25:00,79.9,65.6,30.21,SE,143,6.0,13.0,62,0.00,,,0.00,Weather View 32 v70,2013-06-20 22:25:00,
2013-06-20 18:30:00,79.8,65.6,30.21,SE,139,6.0,12.0,62,0.00,,,0.00,Weather View 32 v70,2013-06-20 22:30:00,
2013-06-20 18:35:00,79.9,65.8,30.22,South,187,5.0,12.0,62,0.00,,,0.00,Weather View 32 v70,2013-06-20 22:35:00,
2013-06-20 18:40:00,79.4,65.2,30.22,SSE,149,4.0,12.0,62,0.00,,,0.00,Weather View 32 v70,2013-06-20 22:40:00,
2013-06-20 18:45:00,79.0,65.8,30.22,ESE,118,6.0,12.0,64,0.00,,,0.00,Weather View 32 v70,2013-06-20 22:45:00,
2013-06-20 18:50:00,78.2,64.9,30.23,ENE,76,3.0,12.0,64,0.00,,,0.00,Weather View 32 v70,2013-06-20 22:50:00,
2013-06-20 19:00:00,77.3,65.2,30.23,West,274,3.0,12.0,66,0.00,,,0.00,Weather View 32 v70,2013-06-20 23:00:00,
2013-06-20 19:05:00,77.4,65.2,30.23,East,83,3.0,12.0,66,0.00,,,0.00,Weather View 32 v70,2013-06-20 23:05:00,
2013-06-20 19:10:00,77.2,65.3,30.23,ESE,117,3.0,12.0,67,0.00,,,0.00,Weather View 32 v70,2013-06-20 23:10:00,
2013-06-20 19:15:00,77.2,65.6,30.23,East,97,4.0,12.0,68,0.00,,,0.00,Weather View 32 v70,2013-06-20 23:15:00,
2013-06-20 19:20:00,77.0,65.2,30.23,East,84,2.0,12.0,67,0.00,,,0.00,Weather View 32 v70,2013-06-20 23:20:00,
2013-06-20 19:25:00,77.0,65.6,30.23,ESE,107,2.0,12.0,68,0.00,,,0.00,Weather View 32 v70,2013-06-20 23:25:00,
2013-06-20 19:30:00,76.8,65.3,30.23,SSW,194,5.0,12.0,68,0.00,,,0.00,Weather View 32 v70,2013-06-20 23:30:00,
2013-06-20 19:35:00,76.6,64.4,30.23,South,188,4.0,12.0,66,0.00,,,0.00,Weather View 32 v70,2013-06-20 23:35:00,
2013-06-20 19:40:00,76.3,64.8,30.23,NE,55,3.0,11.0,68,0.00,,,0.00,Weather View 32 v70,2013-06-20 23:40:00,
2013-06-20 19:45:00,76.0,64.6,30.23,SE,135,3.0,10.0,68,0.00,,,0.00,Weather View 32 v70,2013-06-20 23:45:00,
2013-06-20 19:50:00,75.8,64.3,30.23,SE,143,5.0,10.0,68,0.00,,,0.00,Weather View 32 v70,2013-06-20 23:50:00,
2013-06-20 20:00:00,75.7,64.1,30.23,South,173,4.0,10.0,67,0.00,,,0.00,Weather View 32 v70,2013-06-21 00:00:00,
2013-06-20 20:05:00,75.5,63.9,30.23,South,181,2.0,10.0,68,0.00,,,0.00,Weather View 32 v70,2013-06-21 00:05:00,
2013-06-20 20:10:00,75.4,64.3,30.23,ESE,105,4.0,10.0,69,0.00,,,0.00,Weather View 32 v70,2013-06-21 00:10:00,
2013-06-20 20:20:00,75.1,64.5,30.24,South,188,6.0,11.0,70,0.00,,,0.00,Weather View 32 v70,2013-06-21 00:20:00,
2013-06-20 20:25:00,74.9,64.5,30.24,East,80,4.0,11.0,70,0.00,,,0.00,Weather View 32 v70,2013-06-21 00:25:00,
2013-06-20 20:35:00,74.8,64.3,30.23,SSE,148,6.0,11.0,70,0.00,,,0.00,Weather View 32 v70,2013-06-21 00:35:00,
2013-06-20 20:45:00,74.7,64.4,30.24,SE,135,8.0,11.0,70,0.00,,,0.00,Weather View 32 v70,2013-06-21 00:45:00,
2013-06-20 20:50:00,74.4,64.2,30.24,South,190,6.0,11.0,71,0.00,,,0.00,Weather View 32 v70,2013-06-21 00:50:00,
2013-06-20 20:55:00,74.2,64.1,30.24,SSE,158,4.0,11.0,71,0.00,,,0.00,Weather View 32 v70,2013-06-21 00:55:00,
2013-06-20 21:00:00,74.3,64.2,30.24,ESE,113,1.0,11.0,71,0.00,,,0.00,Weather View 32 v70,2013-06-21 01:00:00,
2013-06-20 21:10:00,74.0,64.2,30.24,SW,225,0.0,11.0,72,0.00,,,0.00,Weather View 32 v70,2013-06-21 01:10:00,
2013-06-20 21:15:00,73.7,64.0,30.24,SSW,211,6.0,11.0,72,0.00,,,0.00,Weather View 32 v70,2013-06-21 01:15:00,
2013-06-20 21:25:00,73.7,64.4,30.25,WNW,284,1.0,11.0,73,0.00,,,0.00,Weather View 32 v70,2013-06-21 01:25:00,
2013-06-20 21:30:00,73.8,64.3,30.25,WSW,243,0.0,11.0,72,0.00,,,0.00,Weather View 32 v70,2013-06-21 01:30:00,
2013-06-20 21:40:00,73.8,64.2,30.25,WNW,300,1.0,11.0,72,0.00,,,0.00,Weather View 32 v70,2013-06-21 01:40:00,
2013-06-20 21:50:00,73.8,64.1,30.25,SSW,200,6.0,11.0,72,0.00,,,0.00,Weather View 32 v70,2013-06-21 01:50:00,
2013-06-20 21:55:00,73.7,64.4,30.25,SW,231,2.0,11.0,73,0.00,,,0.00,Weather View 32 v70,2013-06-21 01:55:00,
2013-06-20 22:00:00,73.6,64.4,30.25,SW,222,5.0,9.0,73,0.00,,,0.00,Weather View 32 v70,2013-06-21 02:00:00,
2013-06-20 22:10:00,73.3,64.1,30.25,SW,214,4.0,7.0,73,0.00,,,0.00,Weather View 32 v70,2013-06-21 02:10:00,
2013-06-20 22:15:00,73.4,63.9,30.25,SSE,165,3.0,7.0,72,0.00,,,0.00,Weather View 32 v70,2013-06-21 02:15:00,
2013-06-20 22:20:00,73.3,63.7,30.25,SSW,201,5.0,8.0,72,0.00,,,0.00,Weather View 32 v70,2013-06-21 02:20:00,
2013-06-20 22:25:00,73.2,63.6,30.25,SSW,205,8.0,9.0,72,0.00,,,0.00,Weather View 32 v70,2013-06-21 02:25:00,
2013-06-20 22:30:00,73.4,63.9,30.25,SW,215,8.0,9.0,72,0.00,,,0.00,Weather View 32 v70,2013-06-21 02:30:00,
2013-06-20 22:35:00,73.4,63.8,30.25,South,186,3.0,9.0,72,0.00,,,0.00,Weather View 32 v70,2013-06-21 02:35:00,
2013-06-20 22:40:00,73.1,63.5,30.26,SSE,165,5.0,9.0,72,0.00,,,0.00,Weather View 32 v70,2013-06-21 02:40:00,
2013-06-20 22:50:00,73.2,63.4,30.26,SW,217,6.0,11.0,72,0.00,,,0.00,Weather View 32 v70,2013-06-21 02:50:00,
2013-06-20 22:55:00,73.0,63.4,30.25,SSW,200,5.0,11.0,72,0.00,,,0.00,Weather View 32 v70,2013-06-21 02:55:00,
2013-06-20 23:00:00,73.1,63.3,30.25,SSE,166,5.0,11.0,72,0.00,,,0.00,Weather View 32 v70,2013-06-21 03:00:00,
2013-06-20 23:05:00,73.3,63.6,30.26,SSW,210,5.0,11.0,72,0.00,,,0.00,Weather View 32 v70,2013-06-21 03:05:00,
2013-06-20 23:10:00,73.2,63.6,30.26,SSE,166,3.0,11.0,72,0.00,,,0.00,Weather View 32 v70,2013-06-21 03:10:00,
2013-06-20 23:15:00,73.2,63.7,30.26,South,169,3.0,11.0,72,0.00,,,0.00,Weather View 32 v70,2013-06-21 03:15:00,
2013-06-20 23:20:00,73.1,63.7,30.26,ENE,60,0.0,11.0,72,0.00,,,0.00,Weather View 32 v70,2013-06-21 03:20:00,
2013-06-20 23:30:00,73.1,64.0,30.26,ENE,60,0.0,11.0,73,0.00,,,0.00,Weather View 32 v70,2013-06-21 03:30:00,
2013-06-20 23:35:00,73.3,64.4,30.26,NE,53,0.0,11.0,74,0.00,,,0.00,Weather View 32 v70,2013-06-21 03:35:00,
2013-06-20 23:40:00,73.0,64.1,30.26,East,86,0.0,11.0,74,0.00,,,0.00,Weather View 32 v70,2013-06-21 03:40:00,
2013-06-20 23:50:00,72.7,64.6,30.26,SSE,155,3.0,9.0,76,0.00,,,0.00,Weather View 32 v70,2013-06-21 03:50:00,
2013-06-20 23:55:00,72.7,64.6,30.26,SSE,167,4.0,9.0,76,0.00,,,0.00,Weather View 32 v70,2013-06-21 03:55:00,